星链-5607 (STARLINK-5607 )

导读 | 豆包AI

STARLINK-5607是美国SpaceX公司星链(Starlink)星座的卫星,属于全球最大低轨卫星互联网项目的组成部分,于2023年1月31日发射升空。星链旨在为全球提供高速低延迟卫星互联网服务,可覆盖偏远区域,也支持城市地区网络服务。作为星链组网卫星,该卫星运行于近地轨道,助力SpaceX构建数万颗规模的卫星网络,提供宽带接入服务。

Basic Information
目录编号:
55404
目录名称:
STARLINK-5607
国际标识:
2023-014P
轨道中心:
EARTH
卫星名称:
星链-5607
卫星全名:
星链-5607 (STARLINK-5607 )
卫星状态:
在轨 (已飞行1185 天)
发射日期:
2023-01-31 UTC
国别 :
美国 (US)
星等 :
--
Orbit Information
数据来源 国际轨道数据 AOE轨道数据
星历时间 2026-04-30T05:38:18+0800
16小时前
查看轨道信息
2026-04-28T08:00:00+0800
2天前
查看轨道信息
半长轴 6950.181km 6950.186km
偏心率 0.0003071 0.0003128
轨道倾角 69.998° 69.998°
近地点辐角 265.788° 270.077°
升交点赤经 295.444° 300.237°
平近点角 94.293° 275.727°
近地点 569.909km 569.874km
远地点 574.179km 574.224km
周期 96.107分钟 96.107分钟
每日圈数 14.983339 14.983324
Detailed Information
固有亮度:
5
最大亮度:
2.5
卫星平台:
Starlink v1.5
覆盖范围:
全球
运营商:
太空探索技术公司
运营商所在国:
美国
制造商(研发单位):
太空探索技术公司
制造商所在国:
美国
使用方式:
暂无
Satellite Introduction
星链(Starlink)计划是由太空探索技术公司(SpaceX)提出的一个巨型低轨卫星互联网星座项目,计划在2019年至2024年间在太空搭建由约1.2万颗卫星组成的“星链”网络,其中1584颗将部署在地球上空550千米处的近地轨道,并从2020年开始工作。该卫星仍在工作。
2D Orbit Map
3D Orbit Map
Orbit Altitude Analysis Chart
Orbit Inclination Analysis Chart
Orbit Comprehensive Analysis Chart
View Comprehensive Chart